Tracking 30922 objects as of 2-Jul-2025
HD Live streaming from Space Station
objects crossing your sky now

SL-8 R/B

Track SL-8 R/B now!
10-day predictions


NORAD ID: 12792
Int'l Code: 1981-084B
Perigee: 759.5 km
Apogee: 779.5 km
Inclination: 74.0 °
Period: 100.1 minutes
Semi major axis: 7140 km
RCS: 5.0997 m2 (large)
Launch date: August 28, 1981
Source: Commonwealth of Independent States (former USSR) (CIS)
Launch site: PLESETSK MISSILE AND SPACE COMPLEX (PKMTR)

Note: This is a ROCKET BODY
Your satellite tracking list
ARIANE 5 DEB (SPELTRA)
Track 1 satellite(s)




NASA's NSSDC Master Catalog

Two Line Element Set (TLE):
1 12792U 81084B   25182.62511348  .00000108  00000-0  43777-4 0  9991
2 12792  74.0297  26.9670 0014019 316.4346  43.5700 14.38826918296763
Source of the keplerian elements: AFSPC